TimeEDT,TemperatureF,Dew PointF,Humidity,Sea Level PressureIn,VisibilityMPH,Wind Direction,Wind SpeedMPH,Gust SpeedMPH,PrecipitationIn,Events,Conditions,WindDirDegrees,DateUTC
12:53 AM,68.0,63.0,84,29.81,8.0,South,4.6,-,N/A,,Clear,180,2013-05-21 04:53:00
1:53 AM,68.0,63.0,84,29.79,7.0,South,5.8,-,N/A,,Clear,170,2013-05-21 05:53:00
2:53 AM,71.1,64.0,78,29.78,7.0,South,6.9,-,N/A,,Clear,190,2013-05-21 06:53:00
3:53 AM,72.0,64.0,76,29.77,7.0,South,6.9,-,N/A,,Clear,190,2013-05-21 07:53:00
4:53 AM,72.0,64.0,76,29.76,7.0,South,6.9,-,N/A,,Mostly Cloudy,180,2013-05-21 08:53:00
5:53 AM,73.0,64.0,73,29.78,8.0,SSW,9.2,16.1,N/A,,Mostly Cloudy,200,2013-05-21 09:53:00
6:53 AM,70.0,61.0,73,29.79,10.0,West,5.8,-,N/A,,Scattered Clouds,260,2013-05-21 10:53:00
7:53 AM,71.1,62.1,73,29.75,10.0,SE,5.8,-,N/A,,Partly Cloudy,130,2013-05-21 11:53:00
8:53 AM,73.0,64.0,73,29.77,9.0,South,4.6,-,N/A,,Clear,190,2013-05-21 12:53:00
9:53 AM,77.0,63.0,62,29.78,10.0,SW,9.2,25.3,N/A,,Clear,220,2013-05-21 13:53:00
10:53 AM,77.0,57.9,52,29.78,10.0,SW,15.0,23.0,N/A,,Scattered Clouds,230,2013-05-21 14:53:00
11:53 AM,77.0,57.9,52,29.78,10.0,WSW,9.2,18.4,N/A,,Mostly Cloudy,240,2013-05-21 15:53:00
12:53 PM,77.0,59.0,54,29.76,10.0,SSW,8.1,-,N/A,,Overcast,210,2013-05-21 16:53:00
1:53 PM,80.1,60.1,50,29.75,10.0,SSW,11.5,19.6,N/A,,Scattered Clouds,210,2013-05-21 17:53:00
2:53 PM,80.1,61.0,52,29.74,10.0,SW,11.5,-,N/A,,Mostly Cloudy,230,2013-05-21 18:53:00
3:53 PM,82.0,60.1,47,29.73,10.0,West,13.8,19.6,N/A,,Clear,260,2013-05-21 19:53:00
4:53 PM,82.9,59.0,44,29.72,10.0,SW,18.4,25.3,N/A,,Clear,230,2013-05-21 20:53:00
5:53 PM,82.9,61.0,47,29.72,10.0,SW,12.7,-,N/A,,Partly Cloudy,230,2013-05-21 21:53:00
6:53 PM,81.0,60.1,49,29.72,10.0,SW,11.5,-,N/A,,Clear,230,2013-05-21 22:53:00
7:53 PM,80.1,61.0,52,29.73,10.0,WSW,5.8,-,N/A,,Clear,240,2013-05-21 23:53:00
8:53 PM,78.1,60.1,54,29.72,10.0,Calm,Calm,-,N/A,,Clear,0,2013-05-22 00:53:00
9:53 PM,73.0,60.1,64,29.72,10.0,South,4.6,-,N/A,,Clear,180,2013-05-22 01:53:00
10:53 PM,66.0,61.0,84,29.74,10.0,Calm,Calm,-,N/A,,Clear,0,2013-05-22 02:53:00
11:53 PM,64.9,60.1,84,29.73,10.0,South,3.5,-,N/A,,Clear,190,2013-05-22 03:53:00